Delavan, Wisconsin, United States (53115)
Lat: 42.63N, Lon: 88.64W
Wx Zone: WIZ070
Local Info
Past Weather Observations for Today

NOTE: This archive is for the closest National Weather Service station to Delavan. Information may differ from the station used for current weather conditions.

Click here for Long-term Archive

Time Weather Temperature Dewpoint Humidity Pressure Winds Precip Visibility
06:35
Mostly Cloudy
34°F / 1°C 30°F / -1°C 87% 30.12 in
(1020 mb)
NNW 16.1 mph
(NNW 26 kph)
- 10SM
06:15
Mostly Cloudy
32°F / 0°C 30°F / -1°C 93% 30.12 in
(1020 mb)
NNW 13.8 mph
(NNW 22 kph)
- 10SM
05:55
Overcast
Unknown Precip
32°F / 0°C 30°F / -1°C 93% 30.12 in
(1020 mb)
NNW 17.3 mph
(NNW 28 kph)
- 10SM
05:35
Overcast
Light Snow
32°F / 0°C 30°F / -1°C 93% 30.12 in
(1020 mb)
NNW 13.8 mph
(NNW 22 kph)
- 3SM
05:15
Overcast
Light Snow
32°F / 0°C 30°F / -1°C 93% 30.12 in
(1020 mb)
NW 13.8 mph
(NW 22 kph)
- 4SM
04:55
Overcast
Light Snow
32°F / 0°C 28°F / -2°C 87% 30.09 in
(1019 mb)
NNW 17.3 mph
(NNW 28 kph)
- 10SM
04:35
Overcast
Light Snow
32°F / 0°C 28°F / -2°C 87% 30.09 in
(1019 mb)
NW 21.9 mph
(NW 35 kph)
- 4SM
04:15
Overcast
Light Snow
34°F / 1°C 28°F / -2°C 81% 30.09 in
(1019 mb)
NNW 18.4 mph
(NNW 30 kph)
- 5SM
03:55
Overcast
Light Snow
34°F / 1°C 28°F / -2°C 81% 30.09 in
(1019 mb)
NNW 15 mph
(NNW 24 kph)
- 3SM
03:35
Overcast
36°F / 2°C 27°F / -3°C 70% 30.09 in
(1019 mb)
NW 16.1 mph
(NW 26 kph)
- 10SM
03:15
Overcast
37°F / 3°C 28°F / -2°C 70% 30.06 in
(1018 mb)
NNW 17.3 mph
(NNW 28 kph)
- 10SM
02:55
Overcast
37°F / 3°C 30°F / -1°C 75% 30.06 in
(1018 mb)
NW 27.6 mph
(NW 44 kph)
- 10SM
02:35
Overcast
39°F / 4°C 30°F / -1°C 70% 30.06 in
(1018 mb)
NNW 16.1 mph
(NNW 26 kph)
- 10SM
02:15
Overcast
39°F / 4°C 30°F / -1°C 70% 30.06 in
(1018 mb)
NNW 17.3 mph
(NNW 28 kph)
- 10SM
01:55
Overcast
39°F / 4°C 30°F / -1°C 70% 30.06 in
(1018 mb)
NNW 20.7 mph
(NNW 33 kph)
- 10SM
01:35
Overcast
41°F / 5°C 32°F / 0°C 70% 30.04 in
(1017 mb)
NNW 20.7 mph
(NNW 33 kph)
- 10SM
01:15
Overcast
41°F / 5°C 32°F / 0°C 70% 30.04 in
(1017 mb)
NW 18.4 mph
(NW 30 kph)
- 10SM
00:55
Overcast
Drizzle
41°F / 5°C 32°F / 0°C 70% 30.04 in
(1017 mb)
NNW 13.8 mph
(NNW 22 kph)
- 10SM
00:35
Overcast
41°F / 5°C 32°F / 0°C 70% 30.04 in
(1017 mb)
NW 12.7 mph
(NW 20 kph)
- 10SM
00:15
Overcast
Drizzle
41°F / 5°C 34°F / 1°C 76% 30.04 in
(1017 mb)
NNW 9.2 mph
(NNW 15 kph)
- 10SM
Time Weather Temperature Dewpoint Humidity Pressure Winds Precip Visibility


Weather for websites

WeatherForYou.com, LLC is not responsible for any damages or problems caused by this service. Current weather conditions are obtained from the closest station including government and personal stations which may have varying degrees of accuracy. Weather forecasts are derived from the NOAA NDFD. Like all things, this site belongs to Jesus Christ... He just trusts me to maintain it. If you have any questions or comments email webmaster@weatherforyou.com

Copyright © 2014, WeatherForYou.com LLC. All rights reserved.